| time (UTC) | temp F | wind direction | speed MPH | gust MPH | rain 1hr in | rain 24hr in | rain mn in | humidity % | barometer mb |
| 20260905221505 | 100 | 11 | 2.0 | 7.0 | 0.00 | 0.00 | 0.00 | 40 | 1010.0 |
| 20260905220004 | 101 | 199 | 0.0 | 3.0 | 0.00 | 0.00 | 0.00 | 40 | 1010.3 |
| 20260905214510 | 101 | 248 | 1.0 | 4.0 | 0.00 | 0.00 | 0.00 | 40 | 1010.3 |
| 20260905213001 | 101 | 127 | 2.0 | 7.0 | 0.00 | 0.00 | 0.00 | 40 | 1010.5 |
| 20260905211609 | 102 | 11 | 2.0 | 6.0 | 0.00 | 0.00 | 0.00 | 39 | 1010.6 |
| 20260905210116 | 102 | 220 | 1.0 | 3.0 | 0.00 | 0.00 | 0.00 | 39 | 1010.9 |
| 20260905204600 | 102 | 215 | 0.0 | 2.0 | 0.00 | 0.00 | 0.00 | 42 | 1011.1 |
| 20260905203055 | 102 | 226 | 1.0 | 5.0 | 0.00 | 0.00 | 0.00 | 40 | 1011.2 |
| 20260905201554 | 102 | 11 | 3.0 | 9.0 | 0.00 | 0.00 | 0.00 | 39 | 1011.5 |
| 20260905200115 | 102 | 120 | 3.0 | 8.0 | 0.00 | 0.00 | 0.00 | 39 | 1011.6 |
| 20260905194553 | 103 | 11 | 2.0 | 10.0 | 0.00 | 0.00 | 0.00 | 40 | 1011.7 |
| 20260905193050 | 102 | 180 | 0.0 | 8.0 | 0.00 | 0.00 | 0.00 | 43 | 1011.9 |
| 20260905191550 | 101 | 250 | 1.0 | 5.0 | 0.00 | 0.00 | 0.00 | 45 | 1012.1 |
| 20260905190047 | 102 | 203 | 2.0 | 10.0 | 0.00 | 0.00 | 0.00 | 39 | 1012.2 |
| 20260905184551 | 102 | 11 | 1.0 | 9.0 | 0.00 | 0.00 | 0.00 | 42 | 1012.4 |
| 20260905183044 | 101 | 114 | 1.0 | 8.0 | 0.00 | 0.00 | 0.00 | 42 | 1012.6 |
| 20260905181546 | 101 | 205 | 4.0 | 9.0 | 0.00 | 0.00 | 0.00 | 42 | 1012.8 |
| 20260905180042 | 100 | 127 | 0.0 | 10.0 | 0.00 | 0.00 | 0.00 | 44 | 1013.0 |
| 20260905174534 | 100 | 197 | 0.0 | 6.0 | 0.00 | 0.00 | 0.00 | 45 | 1013.1 |
| 20260905173041 | 99 | 11 | 3.0 | 11.0 | 0.00 | 0.00 | 0.00 | 46 | 1013.4 |
| 20260905171527 | 98 | 220 | 1.0 | 6.0 | 0.00 | 0.00 | 0.00 | 47 | 1013.6 |
| 20260905170024 | 98 | 251 | 0.0 | 4.0 | 0.00 | 0.00 | 0.00 | 52 | 1013.7 |
| 20260905164522 | 97 | 11 | 0.0 | 5.0 | 0.00 | 0.00 | 0.00 | 52 | 1013.9 |
| 20260905163016 | 96 | 291 | 2.0 | 9.0 | 0.00 | 0.00 | 0.00 | 54 | 1014.0 |
| 20260905161512 | 94 | 213 | 1.0 | 10.0 | 0.00 | 0.00 | 0.00 | 55 | 1013.9 |
| 20260905160006 | 93 | 11 | 3.0 | 8.0 | 0.00 | 0.00 | 0.00 | 56 | 1013.6 |
| 20260905154502 | 92 | 224 | 1.0 | 8.0 | 0.00 | 0.00 | 0.00 | 58 | 1013.7 |
| 20260905153057 | 91 | 11 | 2.0 | 8.0 | 0.00 | 0.00 | 0.00 | 59 | 1013.4 |
| 20260905151604 | 90 | 11 | 2.0 | 5.0 | 0.00 | 0.00 | 0.00 | 60 | 1013.3 |
| 20260905150050 | 89 | 11 | 2.0 | 4.0 | 0.00 | 0.00 | 0.00 | 61 | 1013.3 |
| 20260905144548 | 88 | 209 | 1.0 | 5.0 | 0.00 | 0.00 | 0.00 | 63 | 1013.3 |
| 20260905143041 | 85 | 11 | 1.0 | 5.0 | 0.00 | 0.00 | 0.00 | 68 | 1013.3 |
| 20260905141537 | 82 | 208 | 2.0 | 4.0 | 0.00 | 0.00 | 0.00 | 73 | 1013.3 |
| 20260905140034 | 80 | 11 | 0.0 | 2.0 | 0.00 | 0.00 | 0.00 | 78 | 1013.2 |
| 20260905134536 | 78 | 212 | 0.0 | 4.0 | 0.00 | 0.00 | 0.00 | 79 | 1013.2 |
| 20260905133025 | 76 | 11 | 0.0 | 5.0 | 0.00 | 0.00 | 0.00 | 81 | 1012.9 |
| 20260905131523 | 75 | 11 | 1.0 | 3.0 | 0.00 | 0.00 | 0.00 | 83 | 1012.8 |
| 20260905130021 | 74 | 11 | 0.0 | 3.0 | 0.00 | 0.00 | 0.00 | 84 | 1012.7 |
| 20260905124524 | 74 | 185 | 0.0 | 1.0 | 0.00 | 0.00 | 0.00 | 85 | 1012.5 |
| 20260905123050 | 74 | 11 | 0.0 | 2.0 | 0.00 | 0.00 | 0.00 | 85 | 1012.4 |
| 20260905121518 | 73 | 11 | 0.0 | 2.0 | 0.00 | 0.00 | 0.00 | 84 | 1012.2 |
| 20260905120014 | 74 | 11 | 0.0 | 1.0 | 0.00 | 0.00 | 0.00 | 83 | 1012.1 |
| 20260905114519 | 74 | 197 | 0.0 | 0.0 | 0.00 | 0.00 | 0.00 | 82 | 1011.8 |
| 20260905113013 | 74 | 11 | 0.0 | 2.0 | 0.00 | 0.00 | 0.00 | 83 | 1011.7 |
| 20260905111512 | 74 | 11 | 0.0 | 5.0 | 0.00 | 0.00 | 0.00 | 82 | 1011.7 |
| 20260905110011 | 73 | 11 | 2.0 | 8.0 | 0.00 | 0.00 | 0.00 | 83 | 1011.7 |
| 20260905104510 | 73 | 11 | 0.0 | 0.0 | 0.00 | 0.00 | 0.00 | 83 | 1011.6 |
| 20260905103010 | 74 | 11 | 0.0 | 0.0 | 0.00 | 0.00 | 0.00 | 83 | 1011.5 |
| 20260905101508 | 74 | 195 | 0.0 | 1.0 | 0.00 | 0.00 | 0.00 | 82 | 1011.3 |
| 20260905100008 | 74 | 195 | 0.0 | 0.0 | 0.00 | 0.00 | 0.00 | 82 | 1011.4 |
| 20260905094505 | 74 | 11 | 0.0 | 2.0 | 0.00 | 0.00 | 0.00 | 81 | 1011.4 |
| 20260905093004 | 75 | 11 | 0.0 | 0.0 | 0.00 | 0.00 | 0.00 | 81 | 1011.4 |
| 20260905091502 | 75 | 11 | 0.0 | 0.0 | 0.00 | 0.00 | 0.00 | 82 | 1011.6 |
| 20260905090003 | 75 | 195 | 0.0 | 1.0 | 0.00 | 0.00 | 0.00 | 80 | 1011.5 |
| 20260905084610 | 75 | 195 | 0.0 | 1.0 | 0.00 | 0.00 | 0.00 | 80 | 1011.4 |
| 20260905083059 | 76 | 195 | 0.0 | 0.0 | 0.00 | 0.00 | 0.00 | 80 | 1011.5 |
| 20260905081556 | 76 | 11 | 0.0 | 3.0 | 0.00 | 0.00 | 0.00 | 79 | 1011.4 |
| 20260905080134 | 76 | 11 | 0.0 | 3.0 | 0.00 | 0.00 | 0.00 | 77 | 1011.4 |
| 20260905074552 | 77 | 11 | 0.0 | 3.0 | 0.00 | 0.00 | 0.00 | 77 | 1011.4 |
| 20260905073050 | 77 | 193 | 0.0 | 1.0 | 0.00 | 0.00 | 0.00 | 77 | 1011.5 |
| 20260905071547 | 78 | 11 | 1.0 | 5.0 | 0.00 | 0.00 | 0.00 | 75 | 1011.5 |
| 20260905070052 | 78 | 11 | 0.0 | 3.0 | 0.00 | 0.00 | 0.00 | 74 | 1011.5 |
| 20260905064552 | 79 | 11 | 0.0 | 3.0 | 0.00 | 0.00 | 0.00 | 73 | 1011.7 |
| 20260905063044 | 79 | 11 | 1.0 | 4.0 | 0.00 | 0.00 | 0.00 | 73 | 1011.9 |
| 20260905061541 | 79 | 11 | 0.0 | 4.0 | 0.00 | 0.00 | 0.00 | 73 | 1011.8 |
| 20260905060050 | 79 | 11 | 0.0 | 3.0 | 0.00 | 0.00 | 0.00 | 73 | 1011.8 |
| 20260905054543 | 80 | 189 | 0.0 | 2.0 | 0.00 | 0.00 | 0.00 | 73 | 1011.8 |
| 20260905053037 | 80 | 11 | 0.0 | 3.0 | 0.00 | 0.00 | 0.00 | 73 | 1011.8 |
| 20260905051549 | 80 | 11 | 0.0 | 4.0 | 0.00 | 0.00 | 0.00 | 73 | 1011.7 |
| 20260905050038 | 80 | 11 | 0.0 | 4.0 | 0.00 | 0.00 | 0.00 | 72 | 1011.8 |
| 20260905044634 | 80 | 11 | 0.0 | 3.0 | 0.00 | 0.00 | 0.00 | 72 | 1011.7 |
| 20260905043037 | 81 | 11 | 0.0 | 2.0 | 0.00 | 0.00 | 0.00 | 72 | 1011.6 |
| 20260905041534 | 81 | 11 | 0.0 | 1.0 | 0.00 | 0.00 | 0.00 | 72 | 1011.6 |
| 20260905040040 | 82 | 11 | 0.0 | 1.0 | 0.00 | 0.00 | 0.00 | 71 | 1011.5 |
| 20260905034531 | 82 | 11 | 0.0 | 1.0 | 0.00 | 0.00 | 0.00 | 71 | 1011.7 |
| 20260905033030 | 82 | 11 | 0.0 | 2.0 | 0.00 | 0.00 | 0.00 | 70 | 1011.7 |
| 20260905031537 | 83 | 11 | 0.0 | 1.0 | 0.00 | 0.00 | 0.00 | 69 | 1011.5 |
| 20260905030028 | 84 | 11 | 0.0 | 1.0 | 0.00 | 0.00 | 0.00 | 68 | 1011.4 |
| 20260905024529 | 84 | 11 | 0.0 | 1.0 | 0.00 | 0.00 | 0.00 | 67 | 1011.3 |
| 20260905023028 | 84 | 11 | 0.0 | 3.0 | 0.00 | 0.00 | 0.00 | 66 | 1011.2 |
| 20260905021536 | 85 | 11 | 0.0 | 2.0 | 0.00 | 0.00 | 0.00 | 65 | 1011.0 |
| 20260905020029 | 86 | 11 | 0.0 | 1.0 | 0.00 | 0.00 | 0.00 | 64 | 1010.6 |
| 20260905014526 | 87 | 11 | 0.0 | 2.0 | 0.00 | 0.00 | 0.00 | 62 | 1010.5 |
| 20260905013026 | 87 | 173 | 0.0 | 2.0 | 0.00 | 0.00 | 0.00 | 61 | 1010.2 |
| 20260905011528 | 88 | 11 | 0.0 | 1.0 | 0.00 | 0.00 | 0.00 | 60 | 1010.1 |
| 20260905010031 | 89 | 11 | 0.0 | 1.0 | 0.00 | 0.00 | 0.00 | 59 | 1010.0 |
| 20260905004532 | 91 | 11 | 0.0 | 2.0 | 0.00 | 0.00 | 0.00 | 57 | 1010.0 |
| 20260905003038 | 92 | 171 | 0.0 | 2.0 | 0.00 | 0.00 | 0.00 | 56 | 1010.1 |
| 20260905001522 | 93 | 11 | 0.0 | 3.0 | 0.00 | 0.00 | 0.00 | 55 | 1010.1 |
| 20260905000022 | 94 | 11 | 1.0 | 4.0 | 0.00 | 0.00 | 0.00 | 52 | 1010.1 |
| 20260904234526 | 94 | 11 | 1.0 | 6.0 | 0.00 | 0.00 | 0.00 | 51 | 1010.1 |
| 20260904233038 | 95 | 184 | 1.0 | 10.0 | 0.00 | 0.00 | 0.00 | 51 | 1010.1 |
| 20260904231523 | 95 | 197 | 2.0 | 8.0 | 0.00 | 0.00 | 0.00 | 50 | 1010.3 |
| 20260904230034 | 96 | 11 | 1.0 | 13.0 | 0.00 | 0.00 | 0.00 | 49 | 1010.3 |
| 20260904224519 | 96 | 11 | 2.0 | 9.0 | 0.00 | 0.00 | 0.00 | 49 | 1010.2 |
| 20260904223018 | 96 | 11 | 5.0 | 13.0 | 0.00 | 0.00 | 0.00 | 48 | 1010.2 |